Location: Croydon
(51.3762°N, 0.0982°W)
Time: 15:01:54
(UTC+01:00)

Envisat - Pass Details

Date: 24 February 2019
Orbit: 764 x 766 km, 98.1° (Epoch: 20 October)

Event Time Altitude Azimuth Distance (km) Brightness Sun altitude
Rises 18:03:31 0° 152° (SSE) 3,221 6.0 -5.7°
Reaches altitude 10° 18:05:49 10° 149° (SSE) 2,299 5.2 -6.1°
Maximum altitude 18:10:49 61° 70° (ENE) 869 3.0 -6.9°
Drops below altitude 10° 18:15:50 10° 351° (N) 2,314 5.5 -7.6°
Sets 18:18:10 0° 348° (NNW) 3,245 6.3 -8.0°
